Retour au catalogue

CZ-3B DEB

LostGTO
NORAD 40192·DEBRIS·🇨🇳 China

Lancé Dec 19, 2011 depuis Xichang Satellite Launch Center

Loading…

TLE

PériméSource: Space-Track

Époque: Jan 25, 2015, 02:51 UTC

1 40192U 11077R   15025.11936729 +.00000615 +00000-0 +19995-1 0  9999
2 40192 026.3053 021.0842 7426217 348.5320 000.9491 01.90849574012225

Suivez CZ-3B DEB en temps réel avec AllMySat

Download on the App Store